,,,PA_Meas_PMT16A,,PR_Meas_QMR101_102,,RH_Meas_QMH101,,SR_Meas_QMS101,,TA_Meas_QMH101,,GenWind,,GenWind,
date,time,status,PA,status,PR,status,RH,status,SR,status,TA,status,DirAvg,status,SpdAvg,
2011-04-13, 00:00:05,VALID,1010.64,VALID,0,VALID,99.9279,VALID,0,VALID,25.4287,VALID,81,VALID,0.395312,
2011-04-13, 00:01:05,VALID,1010.61,VALID,0,VALID,99.8516,VALID,0,VALID,25.4287,VALID,71,VALID,0.862109,
2011-04-13, 00:02:05,VALID,1010.64,VALID,0,VALID,99.9355,VALID,0.105969,VALID,25.4287,VALID,85,VALID,0.780469,
2011-04-13, 00:03:05,VALID,1010.59,VALID,0,VALID,99.3636,VALID,0,VALID,25.4072,VALID,72,VALID,0.774609,
2011-04-13, 00:04:05,VALID,1010.58,VALID,0,VALID,99.3636,VALID,0.105969,VALID,25.4267,VALID,85,VALID,0.604297,
2011-04-13, 00:05:05,VALID,1010.59,VALID,0,VALID,99.1958,VALID,0.105969,VALID,25.4482,VALID,77,VALID,0.689062,
2011-04-13, 00:06:05,VALID,1010.57,VALID,0,VALID,99.2568,VALID,0,VALID,25.4462,VALID,75,VALID,0.344922,
2011-04-13, 00:07:05,VALID,1010.57,VALID,0,VALID,99.0357,VALID,0,VALID,25.4462,VALID,75,VALID,0.454688,
2011-04-13, 00:08:05,VALID,1010.53,VALID,0,VALID,99.2797,VALID,0,VALID,25.4677,VALID,75,VALID,0.441406,
2011-04-13, 00:09:05,VALID,1010.52,VALID,0,VALID,99.0585,VALID,0,VALID,25.4677,VALID,75,VALID,0.295312,
2011-04-13, 00:10:05,VALID,1010.52,VALID,0,VALID,99.2949,VALID,0,VALID,25.4677,VALID,75,VALID,0.0179687,
2011-04-13, 00:11:05,VALID,1010.5,VALID,0,VALID,99.539,VALID,0.105969,VALID,25.4871,VALID,75,VALID,0.0863281,
2011-04-13, 00:12:05,VALID,1010.5,VALID,0,VALID,99.1272,VALID,0,VALID,25.4871,VALID,75,VALID,0.205078,
2011-04-13, 00:13:05,VALID,1010.49,VALID,0,VALID,98.9137,VALID,0.105969,VALID,25.4462,VALID,75,VALID,0.358203,
2011-04-13, 00:14:05,VALID,1010.46,VALID,0,VALID,98.723,VALID,0,VALID,25.4462,VALID,69,VALID,0.365625,
2011-04-13, 00:15:05,VALID,1010.45,VALID,0,VALID,98.7535,VALID,0.105969,VALID,25.4462,VALID,67,VALID,0.339453,
2011-04-13, 00:16:05,VALID,1010.44,VALID,0,VALID,98.7611,VALID,0,VALID,25.4462,VALID,67,VALID,0.196484,
2011-04-13, 00:17:05,VALID,1010.46,VALID,0,VALID,98.8755,VALID,0,VALID,25.4677,VALID,67,VALID,0.0878906,
2011-04-13, 00:18:05,VALID,1010.44,VALID,0,VALID,98.8603,VALID,0,VALID,25.4462,VALID,67,VALID,0,
2011-04-13, 00:19:05,VALID,1010.41,VALID,0,VALID,99.0052,VALID,0,VALID,25.4462,VALID,67,VALID,0,
2011-04-13, 00:20:05,VALID,1010.43,VALID,0,VALID,99.15,VALID,0.105969,VALID,25.4462,VALID,67,VALID,0,
2011-04-13, 00:21:05,VALID,1010.41,VALID,0,VALID,99.2263,VALID,0,VALID,25.4462,VALID,67,VALID,0,
2011-04-13, 00:22:05,VALID,1010.38,VALID,0,VALID,99.2111,VALID,0,VALID,25.4677,VALID,67,VALID,0,
2011-04-13, 00:23:05,VALID,1010.37,VALID,0,VALID,99.3636,VALID,0,VALID,25.4462,VALID,67,VALID,0.00234375,
2011-04-13, 00:24:05,VALID,1010.34,VALID,0,VALID,99.5695,VALID,0.105969,VALID,25.4462,VALID,67,VALID,0,
2011-04-13, 00:25:05,VALID,1010.29,VALID,0,VALID,99.783,VALID,0.105969,VALID,25.4482,VALID,67,VALID,0,
2011-04-13, 00:26:05,VALID,1010.29,VALID,0,VALID,99.8059,VALID,0,VALID,25.4462,VALID,67,VALID,0,
2011-04-13, 00:27:05,VALID,1010.28,VALID,0,VALID,99.5695,VALID,0,VALID,25.4072,VALID,67,VALID,0,
2011-04-13, 00:28:05,VALID,1010.27,VALID,0,VALID,99.478,VALID,0,VALID,25.3877,VALID,67,VALID,0.135156,
2011-04-13, 00:29:05,VALID,1010.25,VALID,0,VALID,99.3026,VALID,0,VALID,25.3877,VALID,67,VALID,0.307422,
2011-04-13, 00:30:05,VALID,1010.21,VALID,0,VALID,99.4551,VALID,0,VALID,25.3877,VALID,67,VALID,0.276953,
2011-04-13, 00:31:05,VALID,1010.2,VALID,0,VALID,99.4398,VALID,0.105969,VALID,25.3683,VALID,67,VALID,0.111328,
2011-04-13, 00:32:05,VALID,1010.18,VALID,0,VALID,99.5085,VALID,0,VALID,25.3877,VALID,67,VALID,0,
2011-04-13, 00:33:05,VALID,1010.17,VALID,0,VALID,99.7449,VALID,0.105969,VALID,25.4092,VALID,67,VALID,0,
2011-04-13, 00:34:05,VALID,1010.14,VALID,0,VALID,99.7677,VALID,0,VALID,25.3683,VALID,67,VALID,0,
2011-04-13, 00:35:05,VALID,1010.13,VALID,0,VALID,99.8669,VALID,0.105969,VALID,25.3897,VALID,67,VALID,0,
2011-04-13, 00:36:05,VALID,1010.11,VALID,0,VALID,100.134,VALID,0.105969,VALID,25.3683,VALID,67,VALID,0,
2011-04-13, 00:37:05,VALID,1010.11,VALID,0,VALID,99.8669,VALID,0.105969,VALID,25.3488,VALID,67,VALID,0,
2011-04-13, 00:38:05,VALID,1010.06,VALID,0,VALID,99.7449,VALID,0,VALID,25.3293,VALID,67,VALID,0,
2011-04-13, 00:39:05,VALID,1010.07,VALID,0,VALID,99.8592,VALID,0,VALID,25.3488,VALID,67,VALID,0,
2011-04-13, 00:40:05,VALID,1010.05,VALID,0,VALID,99.7601,VALID,0,VALID,25.3507,VALID,67,VALID,0,
2011-04-13, 00:41:05,VALID,1010.05,VALID,0,VALID,99.661,VALID,0,VALID,25.3312,VALID,67,VALID,0,
2011-04-13, 00:42:05,VALID,1010.03,VALID,0,VALID,99.8059,VALID,0.105969,VALID,25.3293,VALID,67,VALID,0,
2011-04-13, 00:43:05,VALID,1010.04,VALID,0,VALID,99.8059,VALID,0,VALID,25.3312,VALID,67,VALID,0,
2011-04-13, 00:44:05,VALID,1010.05,VALID,0,VALID,99.7601,VALID,0.105969,VALID,25.3098,VALID,67,VALID,0,
2011-04-13, 00:45:05,VALID,1010.04,VALID,0,VALID,100.05,VALID,0,VALID,25.3312,VALID,67,VALID,0,
2011-04-13, 00:46:05,VALID,1010.03,VALID,0,VALID,100.042,VALID,0,VALID,25.3117,VALID,67,VALID,0,
2011-04-13, 00:47:05,VALID,1010.04,VALID,0,VALID,100.08,VALID,0,VALID,25.3117,VALID,67,VALID,0,
2011-04-13, 00:48:05,VALID,1010.04,VALID,0,VALID,100.019,VALID,0.105969,VALID,25.2903,VALID,67,VALID,0,
2011-04-13, 00:49:05,VALID,1010.05,VALID,0,VALID,99.8897,VALID,0.105969,VALID,25.2708,VALID,67,VALID,0,
2011-04-13, 00:50:05,VALID,1010.03,VALID,0,VALID,99.8897,VALID,0,VALID,25.2727,VALID,67,VALID,0,
2011-04-13, 00:51:05,VALID,1010.02,VALID,0,VALID,99.905,VALID,0.105969,VALID,25.2337,VALID,67,VALID,0,
2011-04-13, 00:52:05,VALID,1010.01,VALID,0,VALID,100.012,VALID,0.105969,VALID,25.2123,VALID,67,VALID,0,
2011-04-13, 00:53:05,VALID,1010,VALID,0,VALID,100.157,VALID,0,VALID,25.1928,VALID,67,VALID,0,
2011-04-13, 00:54:05,VALID,1009.99,VALID,0,VALID,100.241,VALID,0,VALID,25.1752,VALID,67,VALID,0,
2011-04-13, 00:55:05,VALID,1009.97,VALID,0,VALID,100.424,VALID,0,VALID,25.1148,VALID,67,VALID,0,
2011-04-13, 00:56:05,VALID,1009.96,VALID,0,VALID,100.66,VALID,0,VALID,25.0954,VALID,67,VALID,0,
2011-04-13, 00:57:05,VALID,1009.98,VALID,0,VALID,100.889,VALID,0,VALID,25.0759,VALID,67,VALID,0,
2011-04-13, 00:58:05,VALID,1009.99,VALID,0,VALID,100.98,VALID,0,VALID,25.0564,VALID,67,VALID,0,
2011-04-13, 00:59:05,VALID,1009.98,VALID,0,VALID,101.056,VALID,0,VALID,25.0174,VALID,67,VALID,0,
2011-04-13, 01:00:05,VALID,1009.99,VALID,0,VALID,101.178,VALID,0,VALID,25.0193,VALID,67,VALID,0,
2011-04-13, 01:01:05,VALID,1009.98,VALID,0,VALID,101.301,VALID,0,VALID,24.9784,VALID,67,VALID,0.323828,
2011-04-13, 01:02:05,VALID,1009.98,VALID,0,VALID,101.316,VALID,0,VALID,24.9784,VALID,67,VALID,0,
2011-04-13, 01:03:05,VALID,1009.94,VALID,0,VALID,101.354,VALID,0,VALID,24.9803,VALID,67,VALID,0,
2011-04-13, 01:04:05,VALID,1009.93,VALID,0,VALID,101.323,VALID,0.105969,VALID,24.9589,VALID,67,VALID,0.226953,
2011-04-13, 01:05:05,VALID,1009.91,VALID,0,VALID,101.278,VALID,0,VALID,24.9803,VALID,67,VALID,0.127344,
2011-04-13, 01:06:05,VALID,1009.88,VALID,0,VALID,101.262,VALID,0,VALID,24.9589,VALID,67,VALID,0.219922,
2011-04-13, 01:07:05,VALID,1009.86,VALID,0,VALID,101.301,VALID,0,VALID,24.9803,VALID,67,VALID,0.0808594,
2011-04-13, 01:08:05,VALID,1009.85,VALID,0,VALID,101.346,VALID,0,VALID,24.9608,VALID,67,VALID,0,
2011-04-13, 01:09:05,VALID,1009.86,VALID,0,VALID,101.346,VALID,0,VALID,24.9394,VALID,67,VALID,0,
2011-04-13, 01:10:05,VALID,1009.85,VALID,0,VALID,101.354,VALID,0,VALID,24.9199,VALID,67,VALID,0,
2011-04-13, 01:11:05,VALID,1009.85,VALID,0,VALID,101.362,VALID,0,VALID,24.9004,VALID,67,VALID,0.102344,
2011-04-13, 01:12:05,VALID,1009.84,VALID,0,VALID,101.362,VALID,0,VALID,24.9004,VALID,67,VALID,0.0140625,
2011-04-13, 01:13:05,VALID,1009.81,VALID,0,VALID,101.377,VALID,0,VALID,24.9023,VALID,67,VALID,0.0820313,
2011-04-13, 01:14:05,VALID,1009.81,VALID,0,VALID,101.384,VALID,0,VALID,24.9023,VALID,67,VALID,0.167187,
2011-04-13, 01:15:05,VALID,1009.78,VALID,0,VALID,101.461,VALID,0,VALID,24.9023,VALID,67,VALID,0.221875,
2011-04-13, 01:16:05,VALID,1009.77,VALID,0,VALID,101.514,VALID,0,VALID,24.842,VALID,67,VALID,0.214062,
2011-04-13, 01:17:05,VALID,1009.77,VALID,0,VALID,101.552,VALID,0,VALID,24.8615,VALID,67,VALID,0.26875,
2011-04-13, 01:18:05,VALID,1009.75,VALID,0,VALID,101.583,VALID,0,VALID,24.8615,VALID,67,VALID,0.286328,
2011-04-13, 01:19:05,VALID,1009.73,VALID,0,VALID,101.537,VALID,0,VALID,24.842,VALID,67,VALID,0.00195313,
2011-04-13, 01:20:05,VALID,1009.74,VALID,0,VALID,101.613,VALID,0,VALID,24.8225,VALID,67,VALID,0,
2011-04-13, 01:21:05,VALID,1009.73,VALID,0,VALID,101.72,VALID,0,VALID,24.8225,VALID,67,VALID,0,
2011-04-13, 01:22:05,VALID,1009.73,VALID,0,VALID,101.781,VALID,0,VALID,24.803,VALID,67,VALID,0.0246094,
2011-04-13, 01:23:05,VALID,1009.73,VALID,0,VALID,101.842,VALID,0,VALID,24.803,VALID,67,VALID,0,
2011-04-13, 01:24:05,VALID,1009.68,VALID,0,VALID,101.987,VALID,0,VALID,24.7835,VALID,67,VALID,0,
2011-04-13, 01:25:05,VALID,1009.67,VALID,0,VALID,102.063,VALID,0,VALID,24.7854,VALID,67,VALID,0,
2011-04-13, 01:26:05,VALID,1009.65,VALID,0,VALID,102.078,VALID,0,VALID,24.7854,VALID,67,VALID,0,
2011-04-13, 01:27:05,VALID,1009.66,VALID,0,VALID,102.086,VALID,0,VALID,24.764,VALID,67,VALID,0,
2011-04-13, 01:28:05,VALID,1009.64,VALID,0,VALID,102.078,VALID,0,VALID,24.7659,VALID,67,VALID,0,
2011-04-13, 01:29:05,VALID,1009.65,VALID,0,VALID,102.109,VALID,0,VALID,24.725,VALID,67,VALID,0,
2011-04-13, 01:30:05,VALID,1009.65,VALID,0,VALID,102.162,VALID,0,VALID,24.7464,VALID,67,VALID,0,
2011-04-13, 01:31:05,VALID,1009.68,VALID,0,VALID,102.231,VALID,0,VALID,24.7055,VALID,67,VALID,0,
2011-04-13, 01:32:05,VALID,1009.68,VALID,0,VALID,102.33,VALID,0,VALID,24.686,VALID,67,VALID,0,
2011-04-13, 01:33:05,VALID,1009.68,VALID,0,VALID,102.414,VALID,0,VALID,24.7074,VALID,67,VALID,0,
2011-04-13, 01:34:05,VALID,1009.66,VALID,0,VALID,102.437,VALID,0,VALID,24.6684,VALID,67,VALID,0,
2011-04-13, 01:35:04,VALID,1009.65,VALID,0,VALID,102.49,VALID,0,VALID,24.6276,VALID,67,VALID,0,
2011-04-13, 01:36:04,VALID,1009.67,VALID,0,VALID,102.49,VALID,0,VALID,24.6276,VALID,67,VALID,0,
2011-04-13, 01:37:04,VALID,1009.71,VALID,0,VALID,102.544,VALID,0,VALID,24.6099,VALID,67,VALID,0,
2011-04-13, 01:38:04,VALID,1009.69,VALID,0,VALID,102.666,VALID,0,VALID,24.5905,VALID,67,VALID,0,
2011-04-13, 01:39:04,VALID,1009.69,VALID,0,VALID,102.727,VALID,0,VALID,24.5691,VALID,67,VALID,0,
2011-04-13, 01:40:04,VALID,1009.7,VALID,0,VALID,102.803,VALID,0,VALID,24.571,VALID,67,VALID,0,
2011-04-13, 01:41:04,VALID,1009.7,VALID,0,VALID,102.81,VALID,0,VALID,24.5496,VALID,67,VALID,0,
2011-04-13, 01:42:04,VALID,1009.69,VALID,0,VALID,102.833,VALID,0,VALID,24.5301,VALID,67,VALID,0,
2011-04-13, 01:43:04,VALID,1009.67,VALID,0,VALID,102.902,VALID,0,VALID,24.4911,VALID,67,VALID,0,
2011-04-13, 01:44:04,VALID,1009.67,VALID,0,VALID,103.032,VALID,0,VALID,24.5106,VALID,67,VALID,0,
2011-04-13, 01:45:04,VALID,1009.63,VALID,0,VALID,103.108,VALID,0,VALID,24.5125,VALID,67,VALID,0.248828,
2011-04-13, 01:46:04,VALID,1009.63,VALID,0,VALID,103.161,VALID,0,VALID,24.493,VALID,67,VALID,0.169141,
2011-04-13, 01:47:04,VALID,1009.62,VALID,0,VALID,103.176,VALID,0,VALID,24.4522,VALID,67,VALID,0.203516,
2011-04-13, 01:48:04,VALID,1009.58,VALID,0,VALID,103.115,VALID,0,VALID,24.4345,VALID,67,VALID,0.251563,
2011-04-13, 01:49:04,VALID,1009.58,VALID,0,VALID,103.131,VALID,0,VALID,24.3956,VALID,67,VALID,0.203906,
2011-04-13, 01:50:04,VALID,1009.57,VALID,0,VALID,103.123,VALID,0,VALID,24.3566,VALID,67,VALID,0.00195313,
2011-04-13, 01:51:04,VALID,1009.54,VALID,0,VALID,103.215,VALID,0,VALID,24.3566,VALID,67,VALID,0.121094,
2011-04-13, 01:52:04,VALID,1009.53,VALID,0,VALID,103.382,VALID,0,VALID,24.2963,VALID,67,VALID,0.217969,
2011-04-13, 01:53:04,VALID,1009.54,VALID,0,VALID,103.497,VALID,0,VALID,24.2768,VALID,67,VALID,0.364062,
2011-04-13, 01:54:04,VALID,1009.56,VALID,0,VALID,103.642,VALID,0,VALID,24.2768,VALID,67,VALID,0.217187,
2011-04-13, 01:55:04,VALID,1009.58,VALID,0,VALID,103.741,VALID,0,VALID,24.2981,VALID,67,VALID,0.317969,
2011-04-13, 01:56:04,VALID,1009.58,VALID,0,VALID,103.817,VALID,0,VALID,24.2786,VALID,67,VALID,0.207813,
2011-04-13, 01:57:04,VALID,1009.57,VALID,0,VALID,103.863,VALID,0,VALID,24.2573,VALID,67,VALID,0.173828,
2011-04-13, 01:58:04,VALID,1009.6,VALID,0,VALID,103.931,VALID,0,VALID,24.3176,VALID,67,VALID,0.0527344,
2011-04-13, 01:59:04,VALID,1009.58,VALID,0,VALID,103.939,VALID,0,VALID,24.2981,VALID,67,VALID,0,
2011-04-13, 02:00:04,VALID,1009.59,VALID,0,VALID,103.962,VALID,0,VALID,24.2591,VALID,67,VALID,0,
2011-04-13, 02:01:04,VALID,1009.59,VALID,0,VALID,103.939,VALID,0,VALID,24.2591,VALID,67,VALID,0,
2011-04-13, 02:02:04,VALID,1009.58,VALID,0,VALID,103.848,VALID,0,VALID,24.2396,VALID,67,VALID,0,
2011-04-13, 02:03:04,VALID,1009.56,VALID,0,VALID,103.809,VALID,0,VALID,24.2007,VALID,67,VALID,0,
2011-04-13, 02:04:04,VALID,1009.58,VALID,0,VALID,103.794,VALID,0,VALID,24.1617,VALID,67,VALID,0,
2011-04-13, 02:05:04,VALID,1009.62,VALID,0,VALID,103.825,VALID,0,VALID,24.1422,VALID,67,VALID,0,
2011-04-13, 02:06:04,VALID,1009.59,VALID,0,VALID,103.848,VALID,0,VALID,24.1422,VALID,67,VALID,0,
2011-04-13, 02:07:04,VALID,1009.61,VALID,0,VALID,103.939,VALID,0,VALID,24.1422,VALID,67,VALID,0.0996094,
2011-04-13, 02:08:04,VALID,1009.62,VALID,0,VALID,104,VALID,0,VALID,24.1422,VALID,67,VALID,0.320313,
2011-04-13, 02:09:04,VALID,1009.59,VALID,0,VALID,104,VALID,0,VALID,24.1227,VALID,67,VALID,0.385547,
2011-04-13, 02:10:04,VALID,1009.58,VALID,0,VALID,104,VALID,0,VALID,24.1422,VALID,67,VALID,0.269922,
2011-04-13, 02:11:04,VALID,1009.59,VALID,0,VALID,104,VALID,0,VALID,24.1227,VALID,67,VALID,0.149609,
2011-04-13, 02:12:04,VALID,1009.59,VALID,0,VALID,104,VALID,0,VALID,24.1032,VALID,67,VALID,0,
2011-04-13, 02:13:04,VALID,1009.59,VALID,0,VALID,104,VALID,0,VALID,24.1032,VALID,67,VALID,0,
2011-04-13, 02:14:04,VALID,1009.57,VALID,0,VALID,104,VALID,0,VALID,24.0837,VALID,67,VALID,0,
2011-04-13, 02:15:04,VALID,1009.59,VALID,0,VALID,104,VALID,0,VALID,24.0643,VALID,67,VALID,0,
2011-04-13, 02:16:04,VALID,1009.6,VALID,0,VALID,104,VALID,0,VALID,24.0643,VALID,67,VALID,0,
2011-04-13, 02:17:04,VALID,1009.62,VALID,0,VALID,104,VALID,0,VALID,24.0643,VALID,67,VALID,0,
2011-04-13, 02:18:04,VALID,1009.63,VALID,0,VALID,104,VALID,0,VALID,24.0643,VALID,67,VALID,0.273047,
2011-04-13, 02:19:04,VALID,1009.64,VALID,0,VALID,104,VALID,0,VALID,24.0837,VALID,67,VALID,0.378906,
2011-04-13, 02:20:04,VALID,1009.6,VALID,0,VALID,104,VALID,0,VALID,24.0819,VALID,67,VALID,0.0527344,
2011-04-13, 02:21:04,VALID,1009.63,VALID,0,VALID,104,VALID,0,VALID,24.1032,VALID,67,VALID,0,
2011-04-13, 02:22:04,VALID,1009.6,VALID,0,VALID,104,VALID,0,VALID,24.1227,VALID,67,VALID,0,
2011-04-13, 02:23:04,VALID,1009.58,VALID,0,VALID,104,VALID,0,VALID,24.1032,VALID,67,VALID,0,
2011-04-13, 02:24:04,VALID,1009.58,VALID,0,VALID,104,VALID,0,VALID,24.1032,VALID,67,VALID,0,
2011-04-13, 02:25:04,VALID,1009.55,VALID,0,VALID,104,VALID,0,VALID,24.0624,VALID,67,VALID,0,
2011-04-13, 02:26:04,VALID,1009.57,VALID,0,VALID,104,VALID,0,VALID,24.0448,VALID,67,VALID,0,
2011-04-13, 02:27:04,VALID,1009.56,VALID,0,VALID,104,VALID,0,VALID,24.0253,VALID,67,VALID,0,
2011-04-13, 02:28:04,VALID,1009.54,VALID,0,VALID,104,VALID,0,VALID,24.0235,VALID,67,VALID,0,
2011-04-13, 02:29:04,VALID,1009.56,VALID,0,VALID,104,VALID,0,VALID,24.0448,VALID,67,VALID,0,
2011-04-13, 02:30:04,VALID,1009.53,VALID,0,VALID,104,VALID,0,VALID,24.004,VALID,67,VALID,0,
2011-04-13, 02:31:04,VALID,1009.53,VALID,0,VALID,104,VALID,0,VALID,24.0253,VALID,67,VALID,0,
2011-04-13, 02:32:04,VALID,1009.53,VALID,0,VALID,104,VALID,0,VALID,24.0058,VALID,67,VALID,0,
2011-04-13, 02:33:04,VALID,1009.55,VALID,0,VALID,104,VALID,0,VALID,24.0058,VALID,67,VALID,0,
2011-04-13, 02:34:04,VALID,1009.54,VALID,0,VALID,104,VALID,0,VALID,23.9863,VALID,67,VALID,0,
2011-04-13, 02:35:04,VALID,1009.51,VALID,0,VALID,104,VALID,0,VALID,23.9668,VALID,67,VALID,0,
2011-04-13, 02:36:04,VALID,1009.48,VALID,0,VALID,104,VALID,0,VALID,23.9668,VALID,67,VALID,0,
2011-04-13, 02:37:04,VALID,1009.48,VALID,0,VALID,104,VALID,0,VALID,23.9668,VALID,67,VALID,0.355078,
2011-04-13, 02:38:04,VALID,1009.45,VALID,0,VALID,104,VALID,0,VALID,23.9668,VALID,67,VALID,0.455859,
2011-04-13, 02:39:04,VALID,1009.44,VALID,0,VALID,104,VALID,0,VALID,23.9455,VALID,67,VALID,0.369141,
2011-04-13, 02:40:04,VALID,1009.44,VALID,0,VALID,104,VALID,0,VALID,23.9668,VALID,67,VALID,0.223047,
2011-04-13, 02:41:04,VALID,1009.41,VALID,0,VALID,104,VALID,0,VALID,23.9473,VALID,67,VALID,0.0117188,
2011-04-13, 02:42:04,VALID,1009.41,VALID,0,VALID,104,VALID,0,VALID,23.9473,VALID,67,VALID,0,
2011-04-13, 02:43:04,VALID,1009.4,VALID,0,VALID,104,VALID,0,VALID,23.9084,VALID,67,VALID,0,
2011-04-13, 02:44:04,VALID,1009.39,VALID,0,VALID,104,VALID,0,VALID,23.8889,VALID,67,VALID,0,
2011-04-13, 02:45:04,VALID,1009.36,VALID,0,VALID,104,VALID,0,VALID,23.8694,VALID,67,VALID,0,
2011-04-13, 02:46:04,VALID,1009.34,VALID,0,VALID,104,VALID,0,VALID,23.8304,VALID,67,VALID,0,
2011-04-13, 02:47:04,VALID,1009.36,VALID,0,VALID,104,VALID,0,VALID,23.8481,VALID,67,VALID,0,
2011-04-13, 02:48:04,VALID,1009.36,VALID,0,VALID,104,VALID,0,VALID,23.8286,VALID,67,VALID,0,
2011-04-13, 02:49:04,VALID,1009.36,VALID,0,VALID,104,VALID,0,VALID,23.8304,VALID,67,VALID,0,
2011-04-13, 02:50:04,VALID,1009.38,VALID,0,VALID,104,VALID,0,VALID,23.8109,VALID,67,VALID,0,
2011-04-13, 02:51:04,VALID,1009.37,VALID,0,VALID,104,VALID,0.105969,VALID,23.7896,VALID,67,VALID,0,
2011-04-13, 02:52:04,VALID,1009.37,VALID,0,VALID,104,VALID,0,VALID,23.7914,VALID,67,VALID,0,
2011-04-13, 02:53:04,VALID,1009.34,VALID,0,VALID,104,VALID,0,VALID,23.8109,VALID,67,VALID,0,
2011-04-13, 02:54:04,VALID,1009.33,VALID,0,VALID,104,VALID,0.105969,VALID,23.7914,VALID,67,VALID,0,
2011-04-13, 02:55:04,VALID,1009.32,VALID,0,VALID,104,VALID,0,VALID,23.7701,VALID,67,VALID,0,
2011-04-13, 02:56:04,VALID,1009.34,VALID,0,VALID,104,VALID,0,VALID,23.8109,VALID,67,VALID,0,
2011-04-13, 02:57:04,VALID,1009.33,VALID,0,VALID,104,VALID,0,VALID,23.7914,VALID,67,VALID,0,
2011-04-13, 02:58:04,VALID,1009.29,VALID,0,VALID,104,VALID,0,VALID,23.7914,VALID,67,VALID,0,
2011-04-13, 02:59:04,VALID,1009.34,VALID,0,VALID,104,VALID,0.105969,VALID,23.7701,VALID,67,VALID,0,
2011-04-13, 03:00:04,VALID,1009.33,VALID,0,VALID,104,VALID,0,VALID,23.7914,VALID,67,VALID,0,
2011-04-13, 03:01:04,VALID,1009.32,VALID,0,VALID,104,VALID,0,VALID,23.7914,VALID,67,VALID,0,
2011-04-13, 03:02:04,VALID,1009.31,VALID,0,VALID,104,VALID,0,VALID,23.8109,VALID,67,VALID,0.0570313,
2011-04-13, 03:03:04,VALID,1009.32,VALID,0,VALID,104,VALID,0,VALID,23.8109,VALID,67,VALID,0,
2011-04-13, 03:04:04,VALID,1009.36,VALID,0,VALID,104,VALID,0,VALID,23.8109,VALID,67,VALID,0.000390625,
2011-04-13, 03:05:04,VALID,1009.33,VALID,0,VALID,104,VALID,0,VALID,23.7525,VALID,67,VALID,0,
2011-04-13, 03:06:04,VALID,1009.32,VALID,0,VALID,104,VALID,0,VALID,23.7525,VALID,67,VALID,0,
2011-04-13, 03:07:04,VALID,1009.32,VALID,0,VALID,104,VALID,0,VALID,23.772,VALID,67,VALID,0,
2011-04-13, 03:08:04,VALID,1009.31,VALID,0,VALID,104,VALID,0.105969,VALID,23.772,VALID,67,VALID,0,
2011-04-13, 03:09:04,VALID,1009.32,VALID,0,VALID,104,VALID,0.105969,VALID,23.7525,VALID,67,VALID,0,
2011-04-13, 03:10:04,VALID,1009.32,VALID,0,VALID,104,VALID,0,VALID,23.7312,VALID,67,VALID,0,
2011-04-13, 03:11:04,VALID,1009.34,VALID,0,VALID,104,VALID,0,VALID,23.733,VALID,67,VALID,0,
2011-04-13, 03:12:04,VALID,1009.34,VALID,0,VALID,104,VALID,0,VALID,23.7135,VALID,67,VALID,0,
2011-04-13, 03:13:04,VALID,1009.36,VALID,0,VALID,104,VALID,0,VALID,23.7135,VALID,67,VALID,0,
2011-04-13, 03:14:04,VALID,1009.36,VALID,0,VALID,104,VALID,0,VALID,23.6922,VALID,67,VALID,0,
2011-04-13, 03:15:04,VALID,1009.36,VALID,0,VALID,104,VALID,0,VALID,23.6532,VALID,67,VALID,0,
2011-04-13, 03:16:04,VALID,1009.33,VALID,0,VALID,104,VALID,0,VALID,23.6338,VALID,67,VALID,0,
2011-04-13, 03:17:04,VALID,1009.34,VALID,0,VALID,104,VALID,0,VALID,23.655,VALID,67,VALID,0,
2011-04-13, 03:18:04,VALID,1009.35,VALID,0,VALID,104,VALID,0,VALID,23.6338,VALID,67,VALID,0,
2011-04-13, 03:19:04,VALID,1009.32,VALID,0,VALID,104,VALID,0,VALID,23.655,VALID,67,VALID,0,
2011-04-13, 03:20:04,VALID,1009.34,VALID,0,VALID,104,VALID,0.105969,VALID,23.6338,VALID,67,VALID,0,
2011-04-13, 03:21:04,VALID,1009.35,VALID,0,VALID,104,VALID,0.105969,VALID,23.6532,VALID,67,VALID,0,
2011-04-13, 03:22:04,VALID,1009.39,VALID,0,VALID,104,VALID,0,VALID,23.694,VALID,67,VALID,0,
2011-04-13, 03:23:04,VALID,1009.38,VALID,0,VALID,104,VALID,0,VALID,23.6727,VALID,67,VALID,0,
2011-04-13, 03:24:04,VALID,1009.41,VALID,0,VALID,104,VALID,0,VALID,23.6727,VALID,67,VALID,0,
2011-04-13, 03:25:04,VALID,1009.42,VALID,0,VALID,104,VALID,0,VALID,23.6532,VALID,67,VALID,0,
2011-04-13, 03:26:04,VALID,1009.47,VALID,0,VALID,104,VALID,0.105969,VALID,23.6745,VALID,67,VALID,0,
2011-04-13, 03:27:04,VALID,1009.45,VALID,0,VALID,104,VALID,0.105969,VALID,23.655,VALID,67,VALID,0,
2011-04-13, 03:28:04,VALID,1009.44,VALID,0,VALID,104,VALID,0,VALID,23.655,VALID,67,VALID,0,
2011-04-13, 03:29:04,VALID,1009.44,VALID,0,VALID,104,VALID,0,VALID,23.6338,VALID,67,VALID,0,
2011-04-13, 03:30:04,VALID,1009.46,VALID,0,VALID,104,VALID,0,VALID,23.6338,VALID,67,VALID,0,
2011-04-13, 03:31:04,VALID,1009.47,VALID,0,VALID,104,VALID,0.105969,VALID,23.6532,VALID,67,VALID,0,
2011-04-13, 03:32:04,VALID,1009.47,VALID,0,VALID,104,VALID,0,VALID,23.6338,VALID,67,VALID,0,
2011-04-13, 03:33:04,VALID,1009.46,VALID,0,VALID,104,VALID,0.105969,VALID,23.6532,VALID,67,VALID,0,
2011-04-13, 03:34:04,VALID,1009.48,VALID,0,VALID,104,VALID,0,VALID,23.6532,VALID,67,VALID,0,
2011-04-13, 03:35:04,VALID,1009.49,VALID,0,VALID,104,VALID,0,VALID,23.694,VALID,67,VALID,0,
2011-04-13, 03:36:04,VALID,1009.48,VALID,0,VALID,104,VALID,0.105969,VALID,23.7135,VALID,67,VALID,0,
2011-04-13, 03:37:04,VALID,1009.49,VALID,0,VALID,104,VALID,0,VALID,23.733,VALID,67,VALID,0,
2011-04-13, 03:38:04,VALID,1009.49,VALID,0,VALID,104,VALID,0,VALID,23.733,VALID,67,VALID,0,
2011-04-13, 03:39:04,VALID,1009.48,VALID,0,VALID,104,VALID,0,VALID,23.7312,VALID,67,VALID,0,
2011-04-13, 03:40:04,VALID,1009.49,VALID,0,VALID,104,VALID,0,VALID,23.733,VALID,67,VALID,0,
2011-04-13, 03:41:04,VALID,1009.47,VALID,0,VALID,104,VALID,0.105969,VALID,23.7117,VALID,67,VALID,0,
2011-04-13, 03:42:04,VALID,1009.5,VALID,0,VALID,104,VALID,0.105969,VALID,23.7507,VALID,67,VALID,0,
2011-04-13, 03:43:04,VALID,1009.54,VALID,0,VALID,104,VALID,0.105969,VALID,23.7507,VALID,67,VALID,0,
2011-04-13, 03:44:04,VALID,1009.53,VALID,0,VALID,104,VALID,0,VALID,23.7701,VALID,67,VALID,0,
2011-04-13, 03:45:04,VALID,1009.53,VALID,0,VALID,104,VALID,0,VALID,23.7507,VALID,67,VALID,0,
2011-04-13, 03:46:04,VALID,1009.52,VALID,0,VALID,104,VALID,0,VALID,23.7507,VALID,67,VALID,0,
2011-04-13, 03:47:04,VALID,1009.49,VALID,0,VALID,104,VALID,0,VALID,23.7135,VALID,67,VALID,0,
2011-04-13, 03:48:04,VALID,1009.48,VALID,0,VALID,104,VALID,0,VALID,23.6727,VALID,67,VALID,0,
2011-04-13, 03:49:04,VALID,1009.46,VALID,0,VALID,104,VALID,0,VALID,23.6532,VALID,67,VALID,0,
2011-04-13, 03:50:04,VALID,1009.45,VALID,0,VALID,104,VALID,0,VALID,23.6356,VALID,67,VALID,0,
2011-04-13, 03:51:04,VALID,1009.45,VALID,0,VALID,104,VALID,0,VALID,23.6143,VALID,67,VALID,0,
2011-04-13, 03:52:04,VALID,1009.45,VALID,0,VALID,104,VALID,0,VALID,23.6143,VALID,67,VALID,0,
2011-04-13, 03:53:04,VALID,1009.43,VALID,0,VALID,104,VALID,0,VALID,23.5948,VALID,67,VALID,0,
2011-04-13, 03:54:04,VALID,1009.46,VALID,0,VALID,104,VALID,0,VALID,23.5558,VALID,67,VALID,0,
2011-04-13, 03:55:04,VALID,1009.44,VALID,0,VALID,104,VALID,0,VALID,23.5753,VALID,67,VALID,0,
2011-04-13, 03:56:04,VALID,1009.45,VALID,0,VALID,104,VALID,0.105969,VALID,23.5753,VALID,67,VALID,0.496484,
2011-04-13, 03:57:04,VALID,1009.46,VALID,0,VALID,104,VALID,0,VALID,23.5753,VALID,67,VALID,0.532031,
2011-04-13, 03:58:04,VALID,1009.45,VALID,0,VALID,104,VALID,0,VALID,23.6143,VALID,67,VALID,0.501953,
2011-04-13, 03:59:04,VALID,1009.47,VALID,0,VALID,104,VALID,0,VALID,23.655,VALID,67,VALID,0.415234,